Location: Mason Neck State Park
(38.6428°N, 77.1981°W)
Time: 06:57:01
(UTC-04:00)

ISS - Visible Passes

Search period start: 24 June 2018 00:00
Search period end: 04 July 2018 00:00
Orbit: 402 x 407 km, 51.6° (Epoch: 25 June)

Date Brightness Start Highest point End Pass type
(mag) Time Alt. Az. Time Alt. Az. Time Alt. Az.
01 Jul -1.5 04:28:20 10° S 04:30:23 17° SE 04:32:34 10° E visible
02 Jul -3.8 05:11:08 10° SW 05:14:26 89° SE 05:17:43 10° NE visible
03 Jul -3.1 04:20:53 25° S 04:22:18 42° SE 04:25:27 10° ENE visible
